SCP
0 0 0 0 0 0 0 0 0 0 0 0 0 0 0 0 0 0 0 0 0 0 0 0 0 0 0 0 0 0 0 0 0 0 0 0 0 0 0 0 0 0 0
0 0 0 0 0 0 0 0 0 0 0 0 0 0 0 0 0 0 0 0 0 0 0 0 0 0 0 0 0 0 0 0 0 0 0 0 0 0 0 0 0 0 0
0 0 0 0 0 0 0 0 0 0 0 0 0 0 0 0 0 0 0 0 0 0 0 0 0 0 0 0 0 0 0 0 0 0 0 0 0 0 0 0 0 0 0
0 0 0 0 0 0 0 0 0 0 0 0 0 0 0 0 0 0 0 0 0 0 0 0 0 0 0 0 0 0 0 0 0 0 0 0 0 0 0 0 0 0 0
0 0 0 0 0 0 0 0 0 0 0 0 0 0 0 0 0 0 0 0 0 0 0 0 0 0 0 0 0 0 0 0 0 0 0 0 0 0 0 0 0 0 0
0 0 0 0 0 0 0 0 0 0 0 0 0 0 0 0 0 0 0 0 0 0 0 0 0 0 0 0 0 0 0 0 0 0 0 0 0 0 0 0 0 0 0
0 0 0 0 0 0 0 0 0 0 0 0 0 0 0 0 0 0 0 0 0 0 0 0 0 0 0 0 0 0 0 0 0 0 0 0 0 0 0 0 0 0 0
0 0 0 0 0 0 0 0 0 0 0 0 0 0 0 0 0 0 0 0 0 0 0 0 0 0 0 0 0 0 0 0 0 0 0 0 0 0 0 0 0 0 0
0 0 0 0 0 0 0 0 0 0 0 0 0 0 0 0 0 0 0 0 0 0 0 0 0 0 0 0 0 0 0 0 0 0 0 0 0 0 0 0 0 0 0
0 0 0 0 0 0 0 0 0 0 0 0 0 0 0 0 0 0 0 0 0 0 0 0 0 0 0 0 0 0 0 0 0 0 0 0 0 0 0 0 0 0 0
0 0 0 0 0 0 0 0 0 0 0 0 0 0 0 0 0 0 0 0 0 0 0 0 0 0 0 0 0 0 0 0 0 0 0 0 0 0 0 0 0 0 0
0 0 0 0 0 0 0 0 0 0 0 0 0 0 0 0 0 0 0 0 0 0 0 0 0 0 0 0 0 0 0 0 0 0 0 0 0 0 0 0 0 0 0
0 0 0 0 0 0 0 0 0 0 0 0 0 0 0 0 0 0 0 0 0 0 0 0 0 0 0 0 0 0 0 0 0 0 0 0 0 0 0 0 0 0 0
0 0 0 0 0 0 0 0 0 0 0 0 0 0 0 0 0 0 0 0 0 0 0 0 0 0 0 0 0 0 0 0 0 0 0 0 0 0 0 0 0 0 0
0 0 0 0 0 0 0 0 0 0 0 0 0 0 0 0 0 0 0 0 0 0 0 0 0 0 0 0 0 0 0 0 0 0 0 0 0 0 0 0 0 0 0
0 0 0 0 0 0 0 -0 0 0 0 0 0 0 0 0 0 0 0 0 0 0 0 0 0 0 0 0 0 0 0 0 0 0 0 0 0 0 0 0 0 0 0
0 0 0 0 0 0 0 0 -0 0 0 0 0 0 0 0 0 0 0 0 0 0 0 0 0 0 0 0 0 0 0 0 0 0 0 0 0 0 0 0 0 0 0
0 0 0 0 0 0 0 -0 -0 0 0 0 0 0 0 0 0 0 0 0 0 0 0 0 0 0 0 0 0 0 0 0 0 0 0 0 0 0 0 0 0 0 0
0 0 0 0 0 0 0 0 0 0 0 0 0 0 0 0 0 0 0 0 0 0 0 0 0 0 0 0 0 0 0 0 0 0 0 0 0 0 0 0 0 0 0
0 0 0 0 0 0 0 0 0 0 0 0 0 0 0 0 0 0 0 0 0 0 0 0 0 0 0 0 0 0 0 0 0 0 0 0 0 0 0 0 0 0 0
0 0 0 0 0 0 0 0 0 0 0 0 0 0 0 0 0 0 0 0 0 0 0 0 0 0 0 0 0 0 0 0 0 0 0 0 0 0 0 0 0 0 0
0 0 0 0 0 0 0 0 0 0 0 0 0 0 0 0 0 0 0 0 0 0 0 0 0 0 0 0 0 0 0 0 0 0 0 0 0 0 0 0 0 0 0
0 0 0 0 0 0 0 0 0 0 0 0 0 0 0 0 0 0 0 0 0 0 0 0 0 0 0 0 0 0 0 0 0 0 0 0 0 0 0 0 0 0 0
0 0 0 0 0 0 0 0 0 0 0 0 0 0 0 0 0 0 0 0 0 0 0 0 0 0 0 0 0 0 0 0 0 0 0 0 0 0 0 0 0 0 0
0 0 0 0 0 0 0 0 0 0 0 0 0 0 0 0 0 0 0 0 0 0 0 0 0 0 0 0 0 0 0 0 0 0 0 0 0 0 0 0 0 0 0
0 0 0 0 0 0 0 0 0 0 0 0 0 0 0 0 0 0 0 0 0 0 0 0 0 0 0 0 0 0 0 0 0 0 0 0 0 0 0 0 0 0 0
Wind_Speed
5 5 5 5 4 3 3 3 2 2 2 2 2 2 1 1 1 1 2 2 1 2 2 2 2 2 2 2 3 2 3 2 2 3 2 3 3 2 2 2 2 2 2
4 5 5 4 4 5 4 4 3 3 3 2 2 2 2 1 1 1 1 1 1 1 2 2 2 2 2 3 3 3 2 1 1 2 2 1 2 3 3 2 2 2 2
8 7 6 5 5 5 5 4 4 4 3 2 2 2 1 1 1 1 1 1 1 1 1 1 1 1 2 3 3 3 3 3 1 1 2 3 2 1 2 2 2 2 2
6 6 6 5 5 4 4 4 4 4 3 3 3 4 3 2 2 1 1 1 0 0 1 1 1 1 1 3 3 3 2 4 2 0 1 1 3 2 1 1 1 2 2
6 6 6 5 4 4 3 3 4 3 3 3 4 4 3 2 1 1 1 1 1 1 1 1 1 1 1 2 3 3 3 3 3 2 1 1 1 1 2 2 2 2 1
4 4 4 3 3 3 3 2 3 3 3 3 3 4 4 3 2 2 2 1 1 1 1 1 1 1 1 2 3 3 4 3 3 2 2 3 2 2 2 2 2 2 2
4 4 3 3 3 3 3 3 3 3 3 3 3 4 4 4 5 4 3 2 1 1 2 1 2 2 2 2 2 3 4 4 3 3 3 2 2 2 2 2 2 2 2
2 4 4 4 3 3 3 3 3 3 3 3 3 3 3 3 3 4 3 3 3 2 2 2 2 2 2 2 3 2 3 3 4 4 3 2 2 2 2 2 2 1 2
2 3 3 3 3 3 3 3 4 3 3 3 2 3 3 3 3 3 3 3 3 2 2 1 2 2 2 2 3 3 3 4 4 4 4 3 3 2 2 2 3 3 3
1 1 2 2 3 3 2 2 3 3 2 2 3 2 3 3 3 3 3 3 3 2 2 2 2 3 3 3 3 3 3 4 4 3 4 4 3 3 3 3 2 2 3
2 2 2 2 2 1 2 2 2 1 1 2 2 2 2 2 2 3 3 3 2 2 3 3 3 3 4 3 4 4 4 4 4 4 5 5 4 3 3 3 3 3 3
2 2 2 1 1 1 1 2 2 2 2 2 2 2 2 2 2 2 3 3 3 3 3 2 3 3 4 4 5 5 5 5 5 5 5 6 4 5 4 4 4 4 4
2 1 1 2 2 2 2 2 2 2 2 1 2 2 1 2 2 2 2 3 3 3 3 2 3 3 4 4 5 5 5 6 6 6 6 6 6 6 5 5 5 4 4
3 3 3 3 3 3 2 2 2 2 2 1 2 2 2 3 3 2 2 2 2 3 3 3 3 3 4 5 5 5 5 5 5 5 5 6 7 7 7 6 6 5 4
4 4 4 4 3 3 2 2 2 2 2 2 2 3 3 2 2 2 2 2 2 3 3 3 3 3 3 4 5 5 5 5 5 5 5 6 7 9 7 6 6 6 5
5 5 5 4 4 4 3 3 3 2 2 2 3 2 2 2 2 2 2 2 2 2 2 3 3 4 4 6 7 5 4 4 4 4 4 5 6 8 10 10 9 9 7
6 5 5 5 5 5 4 4 3 2 2 2 2 2 2 2 2 2 2 2 3 2 2 3 3 4 5 7 7 7 4 4 4 4 4 4 5 6 5 8 10 10 11
5 5 4 4 4 3 3 2 2 2 2 2 2 2 2 2 2 2 2 3 2 3 3 3 4 4 5 7 7 7 4 3 4 5 5 5 5 5 5 5 6 6 7
5 5 4 3 3 2 2 2 1 1 2 2 3 3 2 2 2 2 2 2 2 3 3 3 4 4 5 7 7 6 3 3 4 5 5 5 5 8 9 6 5 6 6
2 2 1 1 1 2 1 2 2 2 3 3 3 2 2 2 2 3 3 2 2 3 3 3 3 4 4 7 7 6 3 3 3 3 4 7 7 9 9 5 5 6 6
2 1 0 1 1 1 1 1 1 2 3 2 2 2 2 2 3 2 2 2 2 2 3 3 3 3 5 6 7 6 3 3 3 3 3 4 9 9 9 7 5 7 6
1 1 0 1 1 0 1 1 2 3 1 1 1 2 2 2 2 2 2 2 2 2 2 2 3 3 4 5 6 8 7 5 3 4 3 4 8 8 8 7 7 8 6
1 1 0 0 1 1 1 2 3 2 1 1 2 2 2 2 2 2 2 2 2 2 2 2 3 3 3 4 7 8 8 7 4 4 6 7 8 7 5 7 7 6 3
1 1 0 0 2 2 2 1 2 1 1 1 2 1 1 1 1 2 2 2 2 2 3 3 3 3 3 3 3 3 4 6 5 4 5 6 6 5 5 4 4 3 3
1 1 1 1 2 2 2 2 2 1 1 1 2 2 1 1 1 2 2 3 3 4 4 3 3 3 4 5 7 5 3 3 3 2 1 1 2 2 2 2 2 3 3
1 1 1 2 2 2 2 2 2 1 1 2 2 1 1 1 2 2 2 4 5 7 7 7 6 5 7 8 8 9 7 6 5 2 1 2 2 3 3 3 3 2 3
Wind_Direction
201 176 169 163 152 150 153 156 160 159 148 153 160 163 163 137 78 56 63 70 74 90 105 111 123 125 128 133 123 114 99 78 93 94 66 28 22 34 36 35 40 31 27
190 183 175 168 166 171 174 171 174 176 172 174 180 183 172 166 144 80 46 53 67 88 109 119 143 147 137 128 122 123 121 86 88 115 115 72 7 6 12 23 37 19 21
196 193 186 181 178 182 187 186 184 183 184 171 147 125 106 97 86 53 2 354 38 70 103 125 147 161 162 160 153 151 132 150 170 100 137 145 185 288 339 16 20 13 15
195 191 183 181 185 194 190 186 183 183 189 175 168 167 169 177 196 201 220 277 248 167 112 128 153 167 174 169 168 159 144 153 168 142 28 110 145 160 231 316 348 353 343
191 188 186 185 184 181 183 185 180 185 189 191 186 186 186 186 168 161 185 212 225 210 165 147 164 175 182 178 169 164 157 160 173 172 157 113 102 139 159 224 286 317 297
190 188 184 166 163 165 169 174 177 191 196 198 198 191 188 177 166 178 197 217 239 229 209 184 188 193 199 191 182 180 175 179 180 183 169 165 172 181 174 197 237 273 281
185 176 171 168 167 172 180 179 183 201 205 203 207 203 196 191 191 195 201 206 217 243 229 209 206 208 217 207 189 185 186 190 190 197 199 192 201 183 185 183 207 262 286
188 181 182 179 180 187 189 186 191 202 206 209 217 218 205 197 201 202 204 210 216 224 234 223 213 215 214 214 199 198 202 200 201 210 209 203 214 198 192 181 175 229 275
199 199 197 189 186 192 199 198 198 199 204 210 213 218 217 210 209 207 208 213 220 220 203 224 232 224 220 217 201 206 214 209 210 212 213 211 212 207 210 200 189 187 222
228 224 217 208 205 204 206 199 197 201 206 207 213 214 221 219 212 201 210 216 224 220 204 212 242 238 226 222 209 212 217 215 216 212 213 220 215 207 202 200 213 211 211
234 240 240 226 213 209 196 196 195 191 208 215 223 224 224 222 207 207 214 215 221 223 213 217 228 241 232 224 215 216 214 221 224 218 218 227 218 211 209 208 213 219 216
234 236 237 250 235 229 228 218 206 208 225 228 217 219 222 219 213 217 223 216 211 216 220 218 230 247 242 232 221 220 219 218 224 225 221 227 222 217 215 216 223 225 223
253 259 246 233 232 238 238 235 229 229 235 226 218 221 218 224 229 231 231 229 221 217 219 215 226 241 245 238 229 222 224 224 225 226 224 226 221 222 221 221 225 226 232
242 245 248 246 241 240 241 240 244 241 237 226 224 232 234 225 233 237 229 231 230 223 220 226 233 244 253 247 235 224 225 225 229 231 230 230 227 225 221 223 222 222 223
246 244 247 248 245 242 242 243 250 244 232 223 232 241 246 238 233 236 236 231 233 239 233 231 242 250 253 250 234 226 224 225 228 230 232 238 243 241 235 231 220 216 219
251 248 247 247 244 242 241 241 249 249 229 228 241 251 249 247 242 240 239 242 242 245 243 238 240 246 254 270 258 242 228 229 232 240 243 248 252 251 254 254 246 235 224
255 253 245 240 241 238 232 228 233 239 229 234 248 250 245 249 249 244 238 241 243 242 241 244 244 249 261 271 270 261 241 224 232 241 244 252 256 259 253 254 254 251 251
253 260 256 250 248 244 236 229 219 220 232 239 247 252 246 249 249 237 238 242 244 243 244 246 246 250 265 277 279 274 257 231 234 238 237 242 247 250 250 248 250 250 251
249 254 251 251 247 235 227 211 224 225 237 244 248 251 250 252 249 246 247 246 240 248 248 246 241 244 263 276 280 275 257 248 241 243 244 248 246 255 257 249 248 258 264
263 261 267 255 237 243 198 189 224 227 243 248 252 255 248 245 247 248 255 260 250 252 255 261 254 250 257 270 279 277 256 258 250 247 250 258 262 259 258 241 233 247 257
292 281 243 247 249 227 168 196 224 247 256 262 264 266 255 246 243 241 251 254 260 261 255 262 266 261 264 271 277 279 269 255 257 259 255 258 267 264 260 255 241 250 260
331 340 200 290 302 196 162 218 256 268 275 271 268 262 258 255 260 237 249 250 249 250 256 260 268 262 266 273 276 280 284 279 251 259 262 260 266 267 267 264 260 263 264
304 323 159 350 344 324 183 231 278 286 283 283 274 271 272 266 264 242 246 246 237 239 251 251 264 273 273 274 283 285 290 289 275 261 270 272 271 269 266 270 273 270 257
299 313 67 349 318 325 322 274 296 315 289 281 284 280 271 274 271 268 249 245 242 237 245 251 258 268 271 271 269 264 279 283 285 276 270 271 271 271 269 269 275 270 254
308 301 252 270 298 326 324 322 325 337 308 290 287 293 292 284 278 280 266 262 245 240 241 235 239 248 258 268 282 282 269 262 264 278 281 287 284 283 277 273 266 265 265
306 315 304 300 309 323 318 323 323 313 291 295 300 294 292 290 286 289 306 303 296 289 274 268 266 263 271 282 286 290 290 289 281 270 258 271 272 272 273 272 274 267 265